CW5801 Weather Reports


time (UTC)temp
C
wind
direction
speed
KPH
gust
KPH
rain 1hr
cm
rain 24hr
cm
rain mn
cm
humidity
%
barometer
mb
20260504202604 29 209 1.6 4.8 0.00 0.00 0.00 29 1013.9
20260504202104 29 303 3.2 8.0 0.00 0.00 0.00 27 1014.0
20260504200604 29 121 3.2 11.3 0.00 0.00 0.00 29 1014.1
20260504200104 29 115 1.6 4.8 0.00 0.00 0.00 29 1014.1
20260504195604 29 128 4.8 11.3 0.00 0.00 0.00 29 1014.3
20260504195105 29 294 3.2 8.0 0.00 0.00 0.00 29 1014.3
20260504194604 29 321 3.2 8.0 0.00 0.00 0.00 29 1014.4
20260504194105 29 13 4.8 14.5 0.00 0.00 0.00 30 1014.6
20260504193604 29 207 3.2 4.8 0.00 0.00 0.00 30 1014.4
20260504192604 29 245 1.6 11.3 0.00 0.00 0.00 29 1014.6
20260504192105 29 331 3.2 4.8 0.00 0.00 0.00 29 1014.6
20260504190604 28 103 3.2 9.7 0.00 0.00 0.00 29 1015.0
20260504190105 28 80 3.2 4.8 0.00 0.00 0.00 29 1015.1
20260504185604 28 105 1.6 4.8 0.00 0.00 0.00 30 1015.1
20260504185104 28 105 1.6 4.8 0.00 0.00 0.00 30 1015.2
20260504184604 28 108 4.8 11.3 0.00 0.00 0.00 30 1015.2
20260504184105 28 176 3.2 8.0 0.00 0.00 0.00 30 1015.3
20260504183105 28 75 3.2 4.8 0.00 0.00 0.00 30 1015.4
20260504182604 28 124 3.2 4.8 0.00 0.00 0.00 31 1015.5
20260504181104 27 121 3.2 4.8 0.00 0.00 0.00 31 1015.7
20260504180604 27 122 3.2 8.0 0.00 0.00 0.00 32 1015.8
20260504180104 27 100 3.2 4.8 0.00 0.00 0.00 31 1016.0
20260504175604 27 129 6.4 19.3 0.00 0.00 0.00 31 1016.0
20260504175104 27 76 3.2 4.8 0.00 0.00 0.00 33 1015.9
20260504174604 27 110 4.8 11.3 0.00 0.00 0.00 32 1016.1
20260504173605 27 108 3.2 9.7 0.00 0.00 0.00 34 1016.2
20260504173104 27 119 4.8 14.5 0.00 0.00 0.00 34 1016.2
20260504172104 27 91 1.6 11.3 0.00 0.00 0.00 35 1016.3
20260504171605 27 133 3.2 9.7 0.00 0.00 0.00 34 1016.4
20260504171104 26 113 3.2 11.3 0.00 0.00 0.00 35 1016.3
20260504170604 26 194 3.2 4.8 0.00 0.00 0.00 35 1016.4
20260504170104 26 252 3.2 4.8 0.00 0.00 0.00 33 1016.5
20260504160105 26 5 1.6 8.0 0.00 0.00 0.00 36 1017.4
20260504151104 25 261 1.6 4.8 0.00 0.00 0.00 38 1017.4
20260504150604 25 315 1.6 9.7 0.00 0.00 0.00 38 1017.5
20260504150104 25 80 1.6 8.0 0.00 0.00 0.00 38 1017.5
20260504141103 23 16 3.2 8.0 0.00 0.00 0.00 48 1017.7
20260504140604 23 24 3.2 4.8 0.00 0.00 0.00 48 1017.8
20260504140104 23 2 3.2 8.0 0.00 0.00 0.00 50 1017.8
20260504130605 17 343 0.0 0.0 0.00 0.00 0.00 28 1017.7
20260504130104 16 343 0.0 0.0 0.00 0.00 0.00 32 1017.7
20260504110604 7 343 0.0 0.0 0.00 0.00 0.00 43 1017.1
20260504110104 8 343 0.0 0.0 0.00 0.00 0.00 43 1017.1
20260504100604 8 343 0.0 0.0 0.00 0.00 0.00 44 1016.8
20260504100104 8 343 0.0 0.0 0.00 0.00 0.00 44 1016.8
20260504081604 9 343 0.0 0.0 0.00 0.00 0.00 46 1016.9
20260504081103 9 343 0.0 0.0 0.00 0.00 0.00 46 1016.9
20260504080603 9 343 0.0 0.0 0.00 0.00 0.00 46 1016.9
20260504080104 9 343 0.0 0.0 0.00 0.00 0.00 47 1016.9
20260504070104 10 343 0.0 0.0 0.00 0.03 0.00 47 1017.3
20260504060104 11 343 0.0 0.0 0.00 0.03 0.00 52 1017.6
20260504050605 11 343 0.0 0.0 0.00 0.03 0.00 58 1018.1
20260504045605 11 343 0.0 0.0 0.00 0.03 0.00 58 1018.2
20260504045105 12 343 0.0 0.0 0.00 0.03 0.00 58 1018.3
20260504044604 12 343 0.0 0.0 0.00 0.03 0.00 58 1018.3
20260504044105 12 343 0.0 0.0 0.00 0.03 0.00 59 1018.3
20260504043605 12 343 0.0 0.0 0.00 0.03 0.00 59 1018.4
20260504043105 12 343 0.0 0.0 0.00 0.03 0.00 59 1018.3
20260504041605 12 343 0.0 0.0 0.00 0.03 0.00 63 1018.3
20260504041105 12 343 0.0 0.0 0.00 0.03 0.00 63 1018.3
20260504040605 12 343 0.0 0.0 0.00 0.03 0.00 63 1018.2
20260504035105 12 343 0.0 0.0 0.00 0.03 0.03 67 1018.2
20260504034605 12 343 0.0 0.0 0.00 0.03 0.03 67 1018.2
20260504034105 12 343 0.0 0.0 0.00 0.03 0.03 67 1018.2
20260504033605 12 343 0.0 0.0 0.00 0.03 0.03 68 1018.2
20260504031604 13 343 0.0 0.0 0.00 0.03 0.03 71 1018.0
20260504031105 13 343 0.0 0.0 0.00 0.03 0.03 71 1018.1
20260504030604 13 343 0.0 0.0 0.00 0.03 0.03 72 1018.1
20260504025605 13 343 0.0 0.0 0.00 0.03 0.03 73 1018.0
20260504025105 13 343 0.0 0.0 0.00 0.03 0.03 73 1018.0
20260504023604 13 343 0.0 0.0 0.00 0.03 0.03 74 1017.9
20260504023105 13 343 0.0 0.0 0.00 0.03 0.03 74 1017.8
20260504022605 13 343 0.0 0.0 0.00 0.03 0.03 75 1017.6
20260504022104 13 343 0.0 0.0 0.00 0.03 0.03 75 1017.6
20260504020605 14 343 0.0 0.0 0.00 0.03 0.03 76 1017.4
20260504020104 14 343 0.0 0.0 0.00 0.03 0.03 76 1017.3
20260504015104 15 343 0.0 0.0 0.00 0.03 0.03 75 1017.3
20260504014104 15 343 0.0 0.0 0.00 0.03 0.03 75 1017.1
20260504013605 15 343 0.0 0.0 0.00 0.03 0.03 74 1017.0
20260504013105 15 343 0.0 0.0 0.00 0.03 0.03 74 1016.8
20260504012604 16 343 0.0 0.0 0.00 0.03 0.03 73 1016.8
20260504012104 16 343 0.0 0.0 0.00 0.03 0.03 73 1016.7
20260504011604 16 343 0.0 0.0 0.00 0.03 0.03 72 1016.7
20260504011104 16 343 0.0 0.0 0.00 0.03 0.03 71 1016.6
20260504010605 16 343 0.0 0.0 0.00 0.03 0.03 70 1016.5
20260504010105 17 343 0.0 0.0 0.00 0.03 0.03 68 1016.4
20260504005605 17 343 0.0 0.0 0.00 0.03 0.03 67 1016.3
20260504005104 17 343 0.0 0.0 0.00 0.03 0.03 67 1016.2
20260504004604 17 343 0.0 0.0 0.00 0.03 0.03 66 1016.2
20260504004105 17 343 0.0 0.0 0.00 0.03 0.03 67 1016.2
20260504003605 18 343 0.0 0.0 0.00 0.03 0.03 66 1016.1
20260504002104 19 343 0.0 0.0 0.00 0.03 0.03 63 1015.9
20260504001605 19 343 0.0 0.0 0.00 0.03 0.03 62 1015.9
20260504001104 20 343 0.0 0.0 0.00 0.03 0.03 63 1015.9
20260504000605 20 343 0.0 0.0 0.00 0.03 0.03 59 1015.9
20260504000105 20 343 0.0 0.0 0.00 0.03 0.03 59 1015.8
20260503235604 20 343 0.0 0.0 0.00 0.03 0.03 61 1015.8
20260503235105 21 343 0.0 0.0 0.00 0.03 0.03 60 1015.7
20260503234604 21 343 0.0 0.0 0.00 0.03 0.03 55 1015.7
20260503234104 21 343 0.0 0.0 0.00 0.03 0.03 53 1015.7
20260503233604 21 343 0.0 0.0 0.00 0.03 0.03 51 1015.7
20260503233104 22 343 0.0 0.0 0.00 0.03 0.03 50 1015.7
20260503232104 22 343 0.0 0.0 0.00 0.03 0.03 46 1015.9
20260503231604 22 342 0.0 0.0 0.00 0.03 0.03 50 1016.0
20260503231104 22 343 0.0 0.0 0.00 0.03 0.03 46 1016.0
20260503230604 22 343 1.6 4.8 0.00 0.03 0.03 43 1016.0
20260503230105 23 140 0.0 3.2 0.00 0.03 0.03 45 1015.9
20260503225605 23 136 0.0 3.2 0.00 0.03 0.03 43 1015.9
20260503225104 23 157 0.0 1.6 0.00 0.03 0.03 43 1015.9
20260503224104 23 86 0.0 3.2 0.00 0.03 0.03 42 1015.8
20260503223604 23 77 0.0 3.2 0.00 0.03 0.03 42 1015.8
20260503223104 23 74 0.0 3.2 0.00 0.03 0.03 44 1015.7
20260503222604 24 35 1.6 4.8 0.00 0.03 0.03 42 1015.7
20260503222105 24 0 1.6 4.8 0.00 0.03 0.03 41 1015.6
20260503221605 24 76 1.6 4.8 0.00 0.03 0.03 41 1015.7
20260503221104 24 302 0.0 4.8 0.00 0.03 0.03 42 1015.7
20260503220605 24 339 3.2 8.0 0.00 0.03 0.03 43 1015.7
20260503220104 24 346 0.0 3.2 0.00 0.03 0.03 43 1015.7
20260503215604 24 346 1.6 4.8 0.00 0.03 0.03 42 1015.8
20260503215104 24 342 1.6 4.8 0.00 0.03 0.03 42 1015.8
20260503214604 25 121 0.0 0.0 0.00 0.03 0.03 41 1015.8
20260503214104 25 121 0.0 0.0 0.00 0.03 0.03 40 1015.8
20260503213605 25 121 1.6 4.8 0.00 0.03 0.03 39 1015.8
20260503213104 25 57 1.6 3.2 0.00 0.03 0.03 39 1015.8
20260503212604 25 56 1.6 4.8 0.00 0.03 0.03 38 1015.9
20260503212104 25 107 3.2 4.8 0.00 0.03 0.03 39 1015.9
20260503211105 25 79 3.2 11.3 0.00 0.03 0.03 38 1015.9
20260503210604 25 20 3.2 8.0 0.00 0.03 0.03 39 1015.8
20260503210104 25 317 3.2 11.3 0.00 0.03 0.03 38 1015.8
20260503205104 26 118 3.2 4.8 0.00 0.03 0.03 38 1015.9
20260503204605 26 117 1.6 4.8 0.00 0.03 0.03 39 1016.0
20260503204105 25 309 0.0 3.2 0.00 0.03 0.03 40 1016.0
20260503203604 25 323 0.0 4.8 0.00 0.03 0.03 41 1016.0
20260503203105 25 346 1.6 12.9 0.00 0.03 0.03 40 1016.2